DW6386 Weather Reports


Display with metric or nautical units.
time (UTC)temp
F
wind
direction
speed
MPH
gust
MPH
rain 1hr
in
rain 24hr
in
rain mn
in
humidity
%
barometer
mb
20260503054553 44 105 0.0 0.0 0.00 0.00 0.00 89 1017.6
20260503053040 44 162 0.0 0.0 0.00 0.00 0.00 88 1017.5
20260503051547 44 181 0.0 0.0 0.00 0.00 0.00 87 1017.5
20260503050036 44 181 0.0 0.0 0.00 0.00 0.00 87 1017.3
20260503044534 45 181 0.0 0.0 0.00 0.00 0.00 85 1017.4
20260503043030 45 207 0.0 0.0 0.00 0.00 0.00 84 1017.3
20260503041532 46 99 0.0 0.0 0.00 0.00 0.00 83 1017.3
20260503040025 47 113 0.0 0.0 0.00 0.00 0.00 82 1017.3
20260503034524 47 121 0.0 0.0 0.00 0.00 0.00 80 1017.2
20260503033021 48 163 0.0 0.0 0.00 0.00 0.00 78 1017.0
20260503031523 49 172 0.0 2.0 0.00 0.00 0.00 76 1016.9
20260503030026 50 105 0.0 5.0 0.00 0.00 0.00 75 1016.9
20260503024520 50 134 0.0 1.0 0.00 0.00 0.00 74 1016.8
20260503023020 51 77 0.0 0.0 0.00 0.00 0.00 74 1016.9
20260503021519 51 120 0.0 8.0 0.00 0.00 0.00 71 1016.9
20260503020017 52 94 0.0 3.0 0.00 0.00 0.00 69 1016.8
20260503014514 53 134 0.0 5.0 0.00 0.00 0.00 64 1016.4
20260503013025 54 282 0.0 4.0 0.00 0.00 0.00 63 1016.0
20260503011509 53 128 0.0 4.0 0.00 0.00 0.00 64 1015.5
20260503010007 53 141 0.0 0.0 0.00 0.00 0.00 65 1015.2
20260503004506 53 119 0.0 0.0 0.00 0.00 0.00 62 1014.9
20260503003008 53 119 0.0 0.0 0.00 0.00 0.00 60 1014.7
20260503001505 54 119 0.0 0.0 0.00 0.00 0.00 58 1014.6
20260503000004 55 119 0.0 0.0 0.00 0.00 0.00 56 1014.3
20260502234504 56 148 0.0 0.0 0.00 0.00 0.00 54 1014.1
20260502233004 58 125 0.0 0.0 0.00 0.00 0.00 52 1013.9
20260502231503 58 182 0.0 3.0 0.00 0.00 0.00 50 1013.9
20260502230005 59 167 0.0 6.0 0.00 0.00 0.00 48 1013.9
20260502224502 60 160 0.0 5.0 0.00 0.00 0.00 48 1013.7
20260502223004 61 129 0.0 4.0 0.00 0.00 0.00 46 1013.9
20260502221501 61 126 0.0 6.0 0.00 0.00 0.00 44 1013.9
20260502220003 61 309 1.0 6.0 0.00 0.00 0.00 47 1013.5
20260502214559 61 134 0.0 4.0 0.00 0.00 0.00 46 1013.5
20260502213105 62 129 0.0 5.0 0.00 0.00 0.00 44 1013.3
20260502211558 63 124 0.0 4.0 0.00 0.00 0.00 44 1013.3
20260502210056 63 114 0.0 7.0 0.00 0.00 0.00 40 1013.3
20260502204600 64 140 0.0 5.0 0.00 0.00 0.00 46 1013.3
20260502203118 63 342 0.0 4.0 0.00 0.00 0.00 44 1013.3
20260502201604 63 98 0.0 6.0 0.00 0.00 0.00 42 1013.3
20260502200059 63 136 0.0 6.0 0.00 0.00 0.00 43 1013.5
20260502194555 65 151 0.0 1.0 0.00 0.00 0.00 41 1013.5
20260502193101 63 46 0.0 6.0 0.00 0.00 0.00 40 1013.4
20260502191550 63 264 0.0 2.0 0.00 0.00 0.00 41 1013.5
20260502190049 63 119 0.0 3.0 0.00 0.00 0.00 41 1013.6
20260502184554 64 127 0.0 6.0 0.00 0.00 0.00 37 1013.5
20260502183046 65 203 1.0 4.0 0.00 0.00 0.00 35 1013.7
20260502181546 65 243 0.0 5.0 0.00 0.00 0.00 38 1013.7
20260502163035 63 181 0.0 5.0 0.00 0.00 0.00 40 1014.9
20260502161536 63 131 0.0 5.0 0.00 0.00 0.00 38 1015.0
20260502151526 61 178 0.0 5.0 0.00 0.00 0.00 45 1014.9
20260502123004 50 142 0.0 0.0 0.00 0.00 0.00 69 1014.8
20260502121502 49 131 0.0 0.0 0.00 0.00 0.00 70 1014.7
20260502120105 48 86 0.0 5.0 0.00 0.00 0.00 73 1014.6
20260502114602 46 117 0.0 4.0 0.00 0.00 0.00 77 1014.4
20260502113118 46 134 0.0 0.0 0.00 0.00 0.00 79 1014.3
20260502111601 46 135 0.0 0.0 0.00 0.00 0.00 79 1014.0
20260502110055 46 135 0.0 0.0 0.00 0.00 0.00 80 1013.9
20260502104607 46 135 0.0 0.0 0.00 0.00 0.00 80 1013.9
20260502103054 46 135 0.0 0.0 0.00 0.00 0.00 80 1013.9
20260502101607 46 135 0.0 0.0 0.00 0.00 0.00 79 1013.7
20260502071534 49 113 0.0 0.0 0.00 0.00 0.00 71 1014.4
20260502070052 49 120 0.0 0.0 0.00 0.00 0.00 69 1014.5
20260502064529 50 264 0.0 0.0 0.00 0.00 0.00 67 1014.2
20260502063032 50 205 0.0 3.0 0.00 0.00 0.00 66 1014.2